Location: M�hlr�ti
(47.3716°N, 8.9866°E)
Time: 13:15:34
(UTC+00:00)

Daily predictions for brighter satellites

Satellite Brightness Start Highest point End
(mag) Time Altitude Azimuth Time Altitude Azimuth Time Altitude Azimuth
Cosmos 1825 2.2 18:50:23 10° N 18:54:10 66° E 18:57:54 10° SSE
Exosat Rocket 3.8 18:51:15 10° NNW 18:57:42 82° ENE 19:02:48 10° SSE
MetOp-A 4.2 18:52:53 10° SSE 18:58:14 88° ENE 19:03:38 10° NNW
CZ-4C R/B 4.2 18:53:53 10° W 18:58:36 31° NNW 19:04:13 10° NNE
Cosmos 2227 Rocket 3.3 18:54:25 10° SSE 18:58:39 22° E 19:02:54 10° NE
Abrixas rocket 0.2 18:57:23 10° WSW 18:58:57 70° SSE 19:00:31 10° E
BREEZE-M DEB (TANK) 3.6 18:57:35 10° WSW 19:00:31 87° SSE 19:07:53 10° ENE
ATLAS 2AS CENTAUR R/B 3.5 18:52:43 10° SW 19:00:37 69° NW 19:08:22 10° NE
Cosmos 1092 Rocket 4.1 18:54:51 10° N 19:01:08 86° W 19:07:19 10° S
Cosmos 2058 2.9 18:59:35 10° N 19:03:48 78° E 19:07:57 10° SSE
Cosmos 2297 Rocket 2.9 19:00:13 10° SSE 19:05:07 31° ESE 19:10:03 10° NE
FALCON 9 DEB 4.2 19:03:50 10° S 19:06:10 20° SE 19:08:29 10° E
Cosmos 1633 3.9 19:03:28 10° NNE 19:06:25 23° ENE 19:09:14 10° SE
Cosmos 405 3.9 19:03:46 10° SSW 19:07:09 52° WNW 19:10:35 10° N
Lacrosse 5 rocket 3.6 19:04:14 10° NW 19:07:31 22° N 19:10:57 10° NE
FALCON 9 DEB 3.9 19:08:12 10° SSW 19:10:47 26° SE 19:13:23 10° E
Resurs 01 Rocket 2.5 19:08:48 10° SE 19:12:47 33° ENE 19:16:47 10° N
Cosmos 2219 3.8 19:09:17 10° SSE 19:14:14 33° ESE 19:19:14 10° NE
Genesis I 4.0 19:10:26 10° NNW 19:14:15 41° NE 19:17:40 12° ESE
Resurs 1-3 3.8 19:10:10 10° SSE 19:14:26 55° ENE 19:18:45 10° N
BREEZE-M DEB (TANK) 3.6 19:11:58 10° WSW 19:15:41 84° NNW 19:28:40 10° ENE
Cosmos 2333 Rocket 3.6 19:11:05 10° NW 19:16:22 38° WSW 19:21:35 10° S
SJ-6B 2.9 19:14:41 10° S 19:18:24 76° WSW 19:22:13 10° NNW
CZ-2C R/B 4.1 19:15:43 10° N 19:20:33 41° WNW 19:25:27 10° SW
Cosmos 2084 Rocket 4.1 19:18:56 10° S 19:22:20 28° ESE 19:25:48 10° ENE
FALCON 9 DEB 3.4 19:20:01 10° SSW 19:22:48 34° SE 19:25:37 10° ENE
Cosmos 389 Rocket 2.5 19:19:27 10° S 19:22:55 57° E 19:26:26 10° NNE
ERS-2 3.4 19:19:25 10° N 19:22:55 45° WNW 19:26:23 10° SW
Ariane Rocket 3.0 19:19:47 10° SSE 19:24:50 82° ENE 19:29:55 10° NNW
Cosmos 614 Rocket 3.9 19:21:23 10° SSW 19:26:31 83° ESE 19:31:39 10° NNE
Terra 4.0 19:26:25 10° ENE 19:27:38 11° NE 19:28:50 10° NE
Cosmos 2251 Rocket 3.9 19:22:58 10° SSW 19:28:19 73° WNW 19:33:40 10° NNE
FALCON 9 DEB 4.1 19:26:07 10° W 19:29:26 48° NNW 19:32:47 10° ENE
ATLAS 3B R/B 3.4 19:24:10 10° NW 19:30:59 54° WSW 19:38:04 10° SSE
Cosmos 2279 Rocket 3.9 19:27:00 10° S 19:33:09 74° E 19:39:20 10° NNE
SPOT 1/Viking Rocket 4.4 19:33:40 16° ESE 19:37:18 35° ENE 19:42:01 10° N
MOS 1 4.4 19:32:34 10° SSE 19:38:12 78° WSW 19:43:53 10° NNW
Cosmos 1980 3.8 19:33:15 10° NNW 19:38:58 84° WSW 19:44:12 12° SSE
Cosmos-2242 3.6 19:35:48 13° SSE 19:39:17 36° E 19:43:15 10° NNE
SL-16 R/B 2.9 19:34:13 10° NNW 19:39:34 39° NE 19:43:26 17° ESE
USA 215 3.8 19:34:16 11° E 19:40:28 54° NNE 19:46:48 10° NW
Cosmos 2151 3.1 19:36:40 10° N 19:40:56 56° ENE 19:44:09 17° SSE
FALCON 9 DEB 3.1 19:41:38 10° SW 19:44:34 44° SE 19:46:41 16° ENE
SPOT 3 Rocket 3.6 19:40:39 14° SSE 19:45:06 66° ENE 19:50:15 10° N
Cosmos 1455 4.5 19:44:04 10° SW 19:47:17 27° WNW 19:50:31 10° NNW
COSMOS 2455 3.5 19:43:08 10° S 19:48:21 32° ESE 19:53:36 10° NE
SL-4 R/B 2.3 19:47:16 10° SW 19:51:30 51° SE 19:56:02 10° ENE
Cosmos 2219 Rocket 4.3 19:48:47 10° NW 19:53:11 23° WSW 19:57:34 10° SSW
BREEZE M DEB (TANK) 4.3 19:51:29 10° SSW 19:54:56 36° SE 20:04:06 10° ENE
ERS-1 Rocket 4.2 19:53:54 19° ESE 19:56:14 27° ENE 20:00:24 10° N
Cosmos 1076 Rocket 4.2 19:52:52 10° NNW 19:57:07 54° W 20:01:18 10° S
IGS 5A 3.4 19:54:20 20° SSE 19:57:08 75° ENE 20:01:18 10° N
Cosmos 2266 Rocket 4.0 19:51:22 10° N 19:57:44 68° E 20:02:35 17° SSE
OBJECT-B 3.2 19:55:49 10° SSW 19:58:23 22° W 20:00:59 10° NW
Landsat 7 3.8 19:55:13 20° SSE 19:58:32 70° ENE 20:03:17 10° N
ATLAS 5 CENTAUR R/B 3.7 19:59:16 10° SW 19:59:32 10° SW 19:59:51 10° SW
Cosmos 2221 4.2 20:05:05 17° E 20:05:05 17° E 20:07:34 10° NE
ARIANE 5 R/B 3.2 20:04:04 27° ESE 20:05:52 40° ENE 20:09:59 10° N
Cosmos 2344 4.1 19:58:50 10° WSW 20:06:11 63° NW 20:14:17 10° NE
USA 245 3.3 20:05:50 35° ESE 20:06:44 43° ENE 20:09:37 10° N
Cosmos 407 Rocket 3.5 20:01:58 10° SSW 20:07:05 82° WNW 20:12:20 10° NNE
Cosmos 1023 Rocket 4.5 20:07:05 10° SSW 20:12:10 81° WNW 20:17:17 10° NNE
MetOp-B 4.1 20:09:17 21° SSE 20:12:55 86° ENE 20:18:19 10° NNW
Meteor 2-3 Rocket 3.7 20:07:57 10° NNW 20:13:45 89° W 20:17:47 20° S
Cosmos 44 Rocket 3.6 20:13:56 10° S 20:18:44 45° ESE 20:23:41 10° NE
Meteor 1-27 4.2 20:14:09 15° S 20:18:53 67° E 20:24:40 10° NNE
Cosmos 1140 Rocket 3.7 20:15:16 10° SSW 20:20:23 72° WNW 20:25:33 10° NNE
Cosmos 1954 Rocket 3.9 20:19:29 11° S 20:24:27 68° ESE 20:29:36 10° NNE
CZ-2C R/B 3.5 20:20:07 10° NNE 20:24:36 85° ESE 20:27:43 19° SSW
Cosmos 2237 Rocket 3.3 20:21:23 10° NW 20:26:36 39° WSW 20:30:48 15° S
Timation 2 Rocket 4.0 20:20:51 10° SSW 20:27:26 85° WNW 20:33:46 10° NNE
Cosmos 2263 Rocket 3.6 20:34:38 21° E 20:34:38 21° E 20:37:42 10° NE
Spot 2 Rocket 3.4 20:32:07 35° SSE 20:34:18 81° ENE 20:39:24 10° NNW
CARTOSAT-1 3.5 20:33:28 46° SE 20:34:36 67° ENE 20:38:54 10° N
Cosmos 1766 Rocket 3.4 20:30:38 10° N 20:35:01 86° E 20:36:22 44° SSE
USA 229 DEB 4.5 20:28:09 10° NW 20:35:06 48° NE 20:39:35 24° E
USA 229 4.5 20:28:15 10° NW 20:35:11 48° NE 20:39:41 23° E
BREEZE M DEB (TANK) 2.5 20:28:27 10° WSW 20:35:27 76° NNW 20:36:34 37° ENE
FALCON 9 DEB 3.1 20:38:40 10° WSW 20:41:38 65° NW 20:41:38 65° NW
Cosmos 2227 Rocket 2.6 20:36:34 10° SW 20:42:12 64° WNW 20:47:51 10° NNE
Cosmos 2082 3.5 20:37:15 13° SSW 20:42:16 74° ESE 20:47:54 10° NNE
Okean 3 Rocket 3.6 20:39:38 10° NNW 20:44:10 77° W 20:45:39 42° S
H-2A R/B 4.4 20:41:32 10° NNE 20:44:42 33° ENE 20:44:42 33° ENE
FALCON 9 DEB 3.5 20:43:22 10° W 20:46:22 53° NNW 20:46:28 52° NNW
Lacrosse 5 rocket 3.0 20:43:56 10° NW 20:47:43 30° NNE 20:49:58 19° ENE
Cosmos 2297 Rocket 3.2 20:43:33 10° SW 20:48:58 47° NW 20:54:27 10° NNE
Cosmos 1869 3.4 20:47:59 43° SSW 20:49:09 73° W 20:53:06 10° N
Resurs 01 Rocket 3.3 20:46:10 14° SSW 20:49:18 28° W 20:53:11 10° NW
Cosmos 1553 Rocket 4.4 20:48:26 37° ESE 20:49:40 41° E 20:55:20 10° NNE
Cosmos 468 Rocket 3.9 20:45:14 10° NNW 20:50:24 80° ENE 20:51:46 50° SE
Meteor 1-4 Rocket 2.6 20:50:30 65° WSW 20:50:50 70° WNW 20:54:22 10° N
NOSS 3-1 (A) 4.4 20:46:02 10° NW 20:53:09 55° NE 20:57:37 28° ESE
Cosmos 1603 4.5 20:48:53 10° NNW 20:54:16 40° NE 20:55:59 32° E
Cosmos 841 Rocket 4.0 20:50:13 10° NNW 20:55:12 43° ENE 20:56:15 38° E
Cosmos 2219 4.3 20:52:54 10° SW 20:58:16 44° NW 21:03:39 10° NNE
FALCON 9 DEB 4.0 20:55:32 10° W 20:58:12 42° NW 20:58:12 42° NW
Cosmos 1763 Rocket 3.3 20:58:09 10° NNW 21:03:14 84° WSW 21:04:17 57° SSE
Terra 1.7 21:03:52 61° ESE 21:04:30 70° ENE 21:09:15 10° N
Cosmos 540 Rocket 3.5 21:05:55 10° NNW 21:11:02 64° ENE 21:11:41 58° ESE
Cosmos 921 Rocket 3.7 21:08:14 10° N 21:12:21 43° ENE 21:12:21 43° ENE
SPOT 5 2.9 21:14:08 58° SSW 21:14:51 69° WSW 21:19:41 10° NNW
NOSS 3-1 (C) 4.0 21:09:39 10° NW 21:17:08 88° SW 21:20:23 43° SE
Meteor 2-2 Rocket 4.1 21:15:41 49° S 21:17:21 86° E 21:23:05 10° NNE
Cosmos 1842 Rocket 3.5 21:20:26 82° WSW 21:20:34 84° W 21:25:03 10° N
USA 215 3.3 21:21:35 49° SSE 21:23:23 68° SW 21:29:56 10° WNW
SL-16 R/B 3.1 21:18:26 10° NW 21:23:41 39° WSW 21:25:19 32° SW
SL-08 ROCKET BODY 4.3 21:24:19 10° N 21:30:24 88° W 21:31:36 60° S
SL-4 R/B 2.7 21:26:44 10° W 21:31:13 61° NNW 21:33:32 28° ENE
COSMOS 2455 3.5 21:28:09 10° SW 21:34:02 54° NW 21:39:57 10° NNE
Cosmos 1408 Rocket 4.3 21:30:32 10° NNW 21:34:38 43° W 21:34:52 43° WSW
ERS-1 Rocket 3.6 21:33:52 41° SW 21:34:48 45° W 21:39:39 10° NNW
Cosmos 2227 4.2 21:40:44 65° ESE 21:40:44 65° ESE 21:46:19 10° NNE
Cosmos 1862 4.4 21:38:09 10° NNW 21:41:30 39° WNW 21:41:30 39° WNW
Cosmos 2221 3.1 21:41:54 49° W 21:42:00 49° WNW 21:46:11 10° N
Sich 1 3.9 21:38:13 10° N 21:41:28 42° NE 21:41:28 42° NE
ARIANE 5 R/B 4.4 21:41:36 22° WSW 21:42:28 23° W 21:45:58 10° NW
Cosmos 1805 Rocket 4.0 21:38:24 10° N 21:41:58 54° NNE 21:41:58 54° NNE
Meteor 1-20 Rocket 4.4 21:42:02 10° N 21:47:45 58° ENE 21:48:01 57° E
Cosmos 1943 3.0 21:44:09 10° NNW 21:49:49 90° NNE 21:50:06 82° SSE
Cosmos 1745 Rocket 3.9 21:46:10 10° N 21:52:31 86° W 21:53:25 67° S
SeaSat 1 3.6 21:48:25 10° NE 21:51:19 31° ENE 21:51:19 31° ENE
Cosmos 1570 Rocket 3.9 21:48:00 10° NNW 21:53:15 87° NW 21:53:15 87° NW
Cosmos 1743 Rocket 4.3 21:49:19 10° NNW 21:53:02 48° WNW 21:53:02 48° WNW
Cosmos 1709 Rocket 4.0 21:51:32 10° N 21:57:43 64° ENE 21:58:09 62° E
Spot 4 4.3 22:00:15 52° NE 22:00:15 52° NE 22:04:32 10° N
Cosmos 1633 Rocket 4.3 21:59:11 10° N 22:02:12 35° NE 22:02:12 35° NE
Cosmos 1606 4.3 22:06:55 33° NNW 22:06:55 33° NNW 22:09:19 10° N
S3M 4.0 22:05:25 63° SSW 22:06:29 79° W 22:12:56 10° N
Cosmos 883 Rocket 4.4 22:06:43 70° ESE 22:06:58 71° E 22:13:15 10° NNE
Cosmos 1666 Rocket 4.4 22:09:40 10° N 22:12:59 47° NNE 22:12:59 47° NNE
Cosmos 2263 Rocket 2.4 22:16:15 58° W 22:16:58 64° WNW 22:22:31 10° NNE
Aureole 1 Rocket 4.4 22:17:34 38° W 22:18:47 43° WNW 22:23:05 10° N
Cosmos 968 Rocket 4.4 22:22:54 39° ENE 22:22:54 39° ENE 22:26:31 10° NNE
USA 229 DEB 4.1 22:19:10 10° NW 22:26:18 55° WSW 22:27:01 53° SW
USA 229 4.1 22:19:15 10° NW 22:26:23 55° WSW 22:27:08 53° SW
Lacrosse 5 rocket 2.8 22:22:56 10° NW 22:25:35 36° NW 22:25:35 36° NW
Cosmos 1844 Rocket 3.8 22:30:56 31° ENE 22:30:56 31° ENE 22:34:21 10° NE
Cosmos 1151 Rocket 4.4 22:34:17 36° NNE 22:34:17 36° NNE 22:36:55 10° NNE
ALOS 2 3.7 22:35:37 43° N 22:35:37 43° N 22:38:42 10° N
Terra 4.1 22:42:44 15° W 22:42:45 15° W 22:45:32 10° NW
NOSS 3-1 (A) 4.4 22:36:59 10° NW 22:44:18 50° WSW 22:45:03 49° SW
Cosmos 1486 Rocket 4.5 22:57:27 58° NNE 22:57:27 58° NNE 23:01:43 10° NNE
Meteor 1-5 Rocket 4.4 22:56:22 10° N 23:01:31 68° NNE 23:01:31 68° NNE
Cosmos 2154 Rocket 4.3 22:57:38 10° N 23:03:53 54° ENE 23:04:10 53° E
Meteor 1-14 Rocket 4.4 22:58:59 10° NNW 23:04:37 73° WNW 23:04:37 73° WNW
SL-4 R/B 4.0 23:06:49 10° WNW 23:09:09 28° WNW 23:09:09 28° WNW
NOSS 2-2 (C) 4.4 23:09:40 10° NW 23:14:35 76° WNW 23:14:35 76° WNW
Cosmos 2184 Rocket 3.9 23:08:42 10° N 23:14:58 87° N 23:14:58 87° N
SJ 16-02 4.1 23:17:22 11° ENE 23:17:22 11° ENE 23:17:45 10° ENE
Cosmos 2278 Rocket 4.2 23:19:29 17° E 23:19:29 17° E 23:22:06 10° ENE
ATLAS 5 CENTAUR R/B 3.3 23:19:44 10° NNW 23:24:50 42° NE 23:27:06 30° E
SeaSat 1 3.7 23:26:08 10° NNE 23:30:33 33° NW 23:31:05 33° WNW
Cosmos 1241 Rocket 4.4 23:33:02 87° ESE 23:33:02 87° ESE 23:39:41 10° NE
Cosmos 1844 3.8 23:41:40 72° NNW 23:41:40 72° NNW 23:47:00 10° NNE
Cosmos 2074 Rocket 4.2 23:35:17 10° NNW 23:41:12 57° W 23:41:12 57° W
USA 281 3.1 23:43:08 72° ESE 23:43:48 81° ENE 23:50:25 10° NNW
Cosmos 1503 Rocket 4.4 23:44:44 58° NNW 23:44:44 58° NNW 23:49:05 10° NNE
COSMOS 2406 4.0 23:38:36 10° NNW 23:44:03 45° NE 23:44:55 42° E
Cosmos 962 Rocket 4.4 23:46:15 10° N 23:52:27 72° E 23:52:36 71° E
Gbstr 26 Del rocket 4.2 23:53:47 54° E 23:53:47 54° E 23:58:07 10° ENE
